Presure
111 116 153 111 116 87 86 79 106 103 99 88 72 73 79 161 102 85 93 83 83 78 81 76 90 87 79 205 100 127 96 215 202
149 100 130 105 85 104 105 93 93 83 82 77 94 82 80 95 100 88 101 97 89 79 83 83 95 101 82 149 222 94 93 228 95
161 151 104 84 91 90 88 97 102 108 77 107 99 109 94 86 101 102 102 100 103 79 79 79 118 149 230 223 284 202 217 147 168
181 185 170 177 107 90 113 100 99 98 95 99 106 121 103 81 102 82 97 94 101 86 83 251 209 108 283 130 102 234 213 207 124
188 176 145 159 148 151 111 111 84 97 101 94 99 78 89 78 86 92 103 105 226 289 111 84 278 200 212 223 257 212 205 202 195
210 206 187 166 144 145 131 107 117 105 104 104 124 203 99 76 113 143 231 286 139 192 230 105 248 120 117 182 199 187 201 192 256
145 203 199 204 199 144 143 143 184 184 203 145 213 149 144 143 156 213 258 204 203 273 270 203 181 196 192 192 206 254 268 313 297
135 151 136 200 203 153 145 147 145 144 197 196 152 140 140 141 202 219 289 217 276 268 257 192 192 191 200 190 237 159 246 213 245
136 139 199 150 135 201 208 160 142 172 140 137 133 135 201 206 158 224 227 186 233 260 185 188 184 197 178 250 236 230 236 236 241
130 142 131 134 203 136 135 158 162 202 181 204 177 181 184 201 228 213 224 288 231 195 184 179 179 196 182 259 266 255 229 127 174
126 170 116 132 133 132 162 145 150 126 128 134 193 197 161 159 197 212 201 139 195 189 183 201 175 189 182 245 122 229 230 238 113
194 109 111 129 190 173 112 115 117 134 140 152 140 133 173 216 229 211 206 201 188 182 180 185 174 190 186 240 229 101 83 212 225
103 105 102 122 126 121 181 137 199 122 145 134 146 178 186 221 227 205 193 206 191 190 174 171 180 179 174 188 98 118 121 220 222
99 102 102 104 150 152 179 199 131 196 189 183 185 188 187 219 206 187 197 194 174 177 195 174 173 183 214 96 124 219 226 217 208
104 102 102 104 195 197 197 195 193 191 184 185 189 187 188 208 185 202 210 184 172 176 172 185 165 173 177 224 228 188 219 212 213
100 184 183 182 103 194 198 195 133 140 181 183 185 189 188 213 214 205 204 191 168 164 164 165 169 180 171 170 204 226 221 213 204
182 136 183 120 192 195 171 116 177 129 131 179 189 188 194 209 208 209 200 197 188 164 169 200 185 190 170 166 173 229 225 211 213
181 179 184 182 185 188 118 122 126 141 124 184 184 181 202 201 207 202 196 199 198 183 194 139 153 199 172 180 193 174 223 216 217
187 184 182 181 182 131 125 128 125 138 183 182 180 188 203 204 197 198 196 201 168 177 174 167 172 169 202 155 200 181 194 205 213
184 185 185 177 178 125 153 123 179 180 178 175 184 197 197 199 195 173 175 188 189 168 176 171 160 212 189 205 182 208 174 195 211
Wind_Speed
21 22 28 20 20 16 13 11 24 22 21 16 8 8 11 37 31 16 27 15 14 8 12 9 31 26 10 50 46 28 38 67 66
28 23 27 22 16 24 24 21 19 16 15 12 23 15 14 27 32 23 36 35 30 21 22 21 39 50 15 51 56 42 44 59 47
35 32 26 20 24 23 24 24 27 25 15 33 30 30 29 22 34 37 38 38 42 19 20 22 49 50 49 51 40 53 53 45 53
44 43 39 42 31 22 29 29 28 28 28 31 37 35 33 23 37 26 36 33 37 34 30 30 42 44 34 49 52 46 51 53 53
46 45 34 38 34 37 37 38 25 32 34 31 37 20 30 20 30 35 43 47 48 33 33 30 29 29 43 43 32 46 50 52 54
43 45 47 44 35 37 37 38 37 40 40 41 43 48 43 22 51 44 43 31 37 34 35 48 32 30 49 42 42 45 47 50 38
40 46 48 47 46 39 37 39 43 42 46 38 47 39 40 42 44 46 38 40 34 30 28 36 36 40 41 43 46 33 21 11 9
35 38 36 48 47 42 41 42 41 41 46 46 40 39 43 45 45 44 32 40 28 29 30 38 38 41 44 45 33 44 25 27 20
38 39 46 40 40 48 44 44 41 45 41 39 42 44 49 47 46 44 41 40 34 30 38 38 40 42 45 27 32 33 26 25 20
37 41 40 41 44 41 41 41 42 43 46 44 47 48 48 45 45 44 40 28 34 36 39 41 42 42 47 21 17 18 27 47 39
40 43 37 44 42 42 44 47 43 44 45 47 48 48 50 49 46 43 43 54 39 39 41 40 44 44 47 25 45 27 25 22 55
46 35 37 45 46 43 43 44 46 48 49 50 50 52 50 53 49 42 41 40 42 43 43 43 46 44 46 26 29 56 50 30 24
37 38 37 46 48 45 47 47 46 50 50 52 53 48 48 54 51 44 45 40 43 43 46 48 46 46 46 44 55 46 53 26 26
38 40 40 41 46 47 49 49 53 46 49 52 52 50 49 55 51 48 44 44 46 46 44 49 48 46 40 56 53 32 26 28 32
43 42 42 45 50 50 50 50 49 50 53 55 54 52 52 55 49 49 47 46 48 49 50 47 52 50 48 38 33 42 32 35 31
43 52 52 52 47 51 51 51 58 59 56 57 57 56 55 58 56 51 49 48 48 52 52 54 53 51 52 51 41 35 36 37 38
53 48 56 49 54 53 53 56 55 61 62 59 60 58 60 61 58 57 51 51 50 52 53 49 52 53 55 55 53 39 38 41 39
57 56 57 58 58 57 61 63 64 63 65 63 62 60 64 62 63 60 55 54 53 53 52 57 56 52 56 55 50 56 42 42 41
61 59 58 60 61 69 68 68 68 64 65 66 63 68 68 66 63 63 62 63 57 57 56 56 56 57 54 62 51 55 50 43 43
64 62 60 62 63 69 64 68 66 67 68 66 70 71 70 70 68 56 57 61 59 58 58 60 62 58 58 54 57 50 57 52 45
Wind_Direction
253 248 271 256 261 254 256 252 256 262 268 271 317 306 279 279 298 296 308 328 324 283 325 298 326 333 299 281 319 297 327 271 274
273 238 264 249 250 254 259 259 261 258 258 277 288 272 281 292 297 303 300 304 316 295 325 334 316 308 301 293 275 317 321 269 319
273 276 253 253 247 251 258 264 273 277 272 284 284 289 290 298 292 293 294 297 297 312 316 311 296 294 279 277 279 279 275 293 280
271 271 275 272 263 262 269 268 270 274 275 283 285 287 287 303 289 310 292 296 298 310 319 308 291 308 298 295 300 275 275 275 290
272 273 276 277 280 279 268 271 265 276 279 277 282 298 290 308 299 297 291 293 303 305 313 317 306 309 287 288 297 282 279 278 276
275 276 274 273 277 278 277 273 277 275 276 279 281 297 286 303 287 289 304 313 293 303 300 295 301 307 295 291 288 286 282 281 279
273 275 276 279 281 278 278 280 289 290 291 287 300 295 287 287 292 307 315 299 305 308 307 299 300 297 297 295 294 306 322 29 282
266 271 271 281 284 279 280 281 283 284 293 297 290 283 284 285 303 312 321 311 311 307 305 303 303 302 301 299 301 300 302 302 295
267 269 281 273 271 287 294 284 283 290 283 281 279 283 301 305 294 317 319 301 313 308 304 304 304 305 302 303 299 298 296 295 297
267 271 267 270 289 276 277 283 285 293 291 295 293 296 298 305 320 312 319 314 308 304 304 303 305 306 306 310 308 296 289 304 297
266 276 270 273 276 276 284 284 280 277 280 286 294 298 295 295 310 311 308 293 305 303 303 307 305 307 308 306 298 296 290 288 301
281 274 275 275 287 286 275 276 278 284 287 288 289 288 297 318 322 311 310 306 304 303 303 306 306 309 312 306 300 296 302 286 283
273 275 272 273 277 275 286 281 292 280 286 287 288 296 299 320 321 308 304 308 301 303 302 303 306 308 309 311 295 297 297 287 285
269 272 273 276 283 282 288 291 283 292 288 288 292 296 299 319 315 305 302 303 300 301 303 302 304 307 307 295 295 292 290 287 284
269 271 274 274 287 289 289 289 290 290 287 289 295 296 299 311 302 307 310 298 298 301 301 301 301 304 306 297 291 293 285 286 285
268 279 279 281 273 287 289 289 282 284 288 291 294 297 299 313 313 306 305 297 296 298 300 301 301 303 303 304 301 285 282 284 286
272 272 279 275 286 288 286 283 286 283 286 291 295 296 301 310 307 306 302 299 298 296 297 304 301 303 302 302 306 283 281 286 283
270 273 278 280 283 285 281 282 283 285 285 291 293 294 303 303 306 303 298 302 301 296 300 295 298 303 299 303 296 305 281 284 281
271 273 275 278 280 277 280 282 283 284 289 291 292 296 303 304 300 300 301 303 294 296 294 295 295 296 300 295 296 301 297 288 284
271 272 274 276 279 279 281 282 285 287 288 289 294 299 300 301 299 291 293 296 296 291 293 293 292 300 299 297 298 291 299 289 280